Weather History for KMXF - March, 2013

Change the Weather History Date:

Wednesday, March 6, 2013

  Actual Average Record
Temperature  
Mean Temperature 43 °F -  
Max Temperature 50 °F 66 °F 78 °F (2004)
Min Temperature 36 °F 43 °F 24 °F (2015)
Degree Days  
Heating Degree Days 22    
Moisture  
Dew Point 27 °F    
Average Humidity 53    
Maximum Humidity 72    
Minimum Humidity 40    
Precipitation  
Precipitation 0.00 in - - ()
Sea Level Pressure  
Sea Level Pressure 30.21 in    
Wind  
Wind Speed 11 mph (NW)    
Max Wind Speed 20 mph    
Max Gust Speed 28 mph    
Visibility 10 miles    
Events      
Averages and records for this station are not official NWS values.
T = Trace of Precipitation, MM = Missing Value Source: NWS Daily Summary

Daily Weather History Graph

Daily Weather History Graph

Search for Another Location

Airport or City:

Trip Planner

Search our weather history database for the weather conditions in past years. The results will help you decide how hot, cold, wet, or windy it might be!

Date:

Astronomy

Mar. 06, 2013 Rise Set
Actual Time 6:06 AM CST 5:47 PM CST
Civil Twilight 5:42 AM CST 6:11 PM CST
Nautical Twilight 5:13 AM CST 6:40 PM CST
Astronomical Twilight 4:45 AM CST 7:08 PM CST
Moon 2:01 AM CST (3/6) 12:41 PM CST (3/6)
Length of Visible Light 12h 29m
Length of Day
11h 40m
Waning Crescent, 29% of the Moon is Illuminated
Mar 6
Waning Crescent
Mar 11
New
Mar 19
First Quarter
Mar 27
Full
Apr 2
Last Quarter

Hourly Weather History & Observations

Time (CST) Temp. Windchill Dew Point Humidity Pressure Visibility Wind Dir Wind Speed Gust Speed Precip Events Conditions
12:58 AM 41.4 °F 34.7 °F 32.2 °F 70% 30.11 in 10.0 mi WNW 11.5 mph - N/A   Clear
1:58 AM 40.6 °F 35.4 °F 30.9 °F 68% 30.11 in 10.0 mi WNW 8.1 mph - N/A   Clear
2:58 AM 40.1 °F 35.3 °F 27.9 °F 62% 30.12 in 10.0 mi Variable 6.9 mph - N/A   Clear
3:58 AM 38.5 °F 32.7 °F 25.5 °F 60% 30.14 in 10.0 mi WNW 8.1 mph - N/A   Clear
4:58 AM 37.6 °F 30.0 °F 24.4 °F 59% 30.16 in 10.0 mi WNW 11.5 mph 18.4 mph N/A   Clear
5:58 AM 36.3 °F 28.9 °F 23.2 °F 59% 30.18 in 10.0 mi NW 10.4 mph - N/A   Clear
6:58 AM 36.7 °F 30.5 °F 23.9 °F 60% 30.20 in 10.0 mi WNW 8.1 mph - N/A   Clear
7:58 AM 38.8 °F 32.1 °F 23.7 °F 55% 30.23 in 10.0 mi NW 10.4 mph 23.0 mph N/A   Clear
8:58 AM 40.8 °F 31.7 °F 23.2 °F 50% 30.24 in 10.0 mi NW 19.6 mph 27.6 mph N/A   Clear
9:58 AM 43.5 °F 35.8 °F 23.9 °F 46% 30.25 in 10.0 mi NNW 17.3 mph 24.2 mph N/A   Partly Cloudy
10:58 AM 45.5 °F 37.8 °F 24.4 °F 44% 30.24 in 10.0 mi NNW 19.6 mph 26.5 mph N/A   Partly Cloudy
11:06 AM 46.4 °F 39.8 °F 24.8 °F 43% 30.23 in 10.0 mi WNW 16.1 mph 20.7 mph N/A   Clear
11:58 AM 47.5 °F - 25.9 °F 43% 30.24 in 10.0 mi NW 13.8 mph 23.0 mph N/A   Clear
11:59 AM 48.2 °F - 26.6 °F 43% 30.23 in 10.0 mi WNW 12.7 mph 23.0 mph N/A   Clear
12:58 PM 48.9 °F - 27.0 °F 43% 30.22 in 10.0 mi NNW 16.1 mph 24.2 mph N/A   Clear
1:07 PM 50.0 °F - 26.6 °F 40% 30.20 in 10.0 mi WNW 15.0 mph 27.6 mph N/A   Clear
1:58 PM 49.5 °F - 27.0 °F 42% 30.22 in 10.0 mi NW 15.0 mph - N/A   Clear
2:58 PM 49.6 °F - 26.8 °F 41% 30.22 in 10.0 mi NW 12.7 mph - N/A   Clear
3:12 PM 50.0 °F - 26.6 °F 40% 30.20 in 10.0 mi North 15.0 mph 20.7 mph N/A   Clear
3:20 PM 50.0 °F - 26.6 °F 40% 30.21 in 10.0 mi NW 13.8 mph 20.7 mph N/A   Clear
3:21 PM 50.0 °F - 26.6 °F 40% 30.21 in 10.0 mi WNW 12.7 mph 20.7 mph N/A   Clear
3:58 PM 50.2 °F - 27.7 °F 42% 30.22 in 10.0 mi NNW 15.0 mph 19.6 mph N/A   Clear
4:58 PM 48.0 °F - 28.0 °F 46% 30.22 in 10.0 mi NNW 13.8 mph - N/A   Clear
5:58 PM 45.1 °F 39.1 °F 27.9 °F 51% 30.22 in 10.0 mi North 12.7 mph - N/A   Clear
6:58 PM 43.3 °F 39.2 °F 28.6 °F 56% 30.25 in 10.0 mi NW 6.9 mph - N/A   Clear
7:58 PM 41.0 °F 38.0 °F 28.0 °F 60% 30.27 in 10.0 mi WNW 4.6 mph - N/A   Clear
8:58 PM 39.2 °F 34.2 °F 28.2 °F 65% 30.26 in 10.0 mi NW 6.9 mph - N/A   Clear
9:58 PM 38.5 °F 34.1 °F 28.2 °F 67% 30.28 in 10.0 mi WNW 5.8 mph - N/A   Clear
10:58 PM 37.0 °F 33.3 °F 28.2 °F 70% 30.27 in 10.0 mi WNW 4.6 mph - N/A   Clear
11:58 PM 36.5 °F 31.0 °F 28.2 °F 72% 30.27 in 10.0 mi WNW 6.9 mph - N/A   Clear